Location: Newark
(39.6867°N, 100.6772°W)
Time: 23:18:08
(UTC+00:00)

Vanguard 1 - Pass Details

Date: 20 October 2019
Orbit: 652 x 3831 km, 34.2° (Epoch: 20 November)

Event Time Altitude Azimuth Distance (km) Brightness Sun altitude
Rises 05:12:30 0° 274° (W) 5,104 14.0 -56.1°
Reaches altitude 10° 05:15:16 10° 271° (W) 4,435 13.6 -56.4°
Enters shadow 05:18:50 26° 265° (W) 3,712 13.0 -56.8°
Maximum altitude 05:28:26 65° 194° (SSW) 3,146 - -57.7°
Drops below altitude 10° 05:50:12 10° 119° (ESE) 6,887 - -59.4°
Sets 05:55:51 0° 117° (ESE) 7,967 - -59.7°
